Location: *
(34.6780°N, 135.8310°E)
Time: 16:23:57
(UTC+00:00)

Cosmos 1707 - Pass Details

Date: 18 October 2019
Orbit: 515 x 532 km, 82.5° (Epoch: 20 November)

Event Time Altitude Azimuth Distance (km) Brightness Sun altitude
Exits shadow 19:45:24 19° 214° (SW) 1,314 4.4 -17.1°
Maximum altitude 19:47:55 44° 279° (W) 743 3.0 -16.6°
Drops below altitude 10° 19:51:41 10° 353° (N) 1,787 5.3 -15.8°
Sets 19:53:55 0° 360° (N) 2,681 6.3 -15.3°
